{"data":{"norad_id":46457,"intl_designator":"2020-065D","name":"JILIN-1 GAOFEN 3E","alt_names":[],"object_type":"PAYLOAD","status":"ACTIVE","operator":null,"country":"PRC","launch_date":"2020-09-15","launch_site_code":"SEAL","launch_vehicle":null,"mission":null,"orbit_class":"UNKNOWN","rcs_meters":null,"size_class":null,"mass_kg":null,"dimensions":null,"purposes":[],"wikipedia_slug":null,"has_3d_model":false,"image_url":null,"decayed_at":null,"tle_current":{"epoch":"2026-05-25T03:54:01.776384Z","epoch_age_seconds":57022,"freshness":"FRESH","line1":"1 46457U 20065D   26145.16252056  .00053374  00000+0  63911-3 0  9998","line2":"2 46457  97.2279 197.2847 0010692 234.4785 125.5476 15.60734639316164","mean_motion":15.60734639,"eccentricity":0.0010692,"inclination_deg":97.2279,"raan_deg":197.2847,"arg_perigee_deg":234.4785,"mean_anomaly_deg":125.5476,"bstar":0.00063911,"rev_number":31616,"period_min":92.26424300563,"perigee_km":378.30208767954,"apogee_km":392.7655213279,"semimajor_km":6763.6708045037,"source":"CELESTRAK","updated_at":"2026-05-25T13:37:56.320705Z"}}}